ELEKTRO-L 2

Last updated on Wed Aug 19 2026 00:02:41 GMT+0000 (Coordinated Universal Time)

1 41105U 15074A 26230.34296983 -.00000124 00000+0 00000+0 0 9991 2 41105 6.8460 69.7425 0001067 199.1678 166.7775 1.00271170 39139
UTC large
Height (km)
Speed (km/s)
/
Latitude / Longitude
Inclination (degrees)
Orbital Period (minutes)
Azimuth
Elevation
Range (km)
Doppler Factor

Next 0 passes for location: London (51.5072 / 0.1276)

No passes found over London.
ELEKTRO-L 2